Weather History for Hamilton Island, QU

Change the Weather History Date:

Wednesday, April 3, 2013

  Actual Average Record
Temperature  
Mean Temperature 78 °F -  
Max Temperature 82 °F - - ()
Min Temperature 75 °F - - ()
Cooling Degree Days 14    
Growing Degree Days 28 (Base 50)    
Moisture  
Dew Point 72 °F    
Average Humidity 80    
Maximum Humidity 94    
Minimum Humidity 58    
Precipitation  
Precipitation 0.00 in - - ()
Sea Level Pressure  
Sea Level Pressure 29.96 in    
Wind  
Wind Speed 14 mph ()    
Max Wind Speed 21 mph    
Max Gust Speed -    
T = Trace of Precipitation, MM = Missing Value Source: Averaged Metar Reports

Daily Weather History Graph

Daily Weather History Graph

Search for Another Location

Airport:

Trip Planner

Search our weather history database for the weather conditions in past years. The results will help you decide how hot, cold, wet, or windy it might be!

Date:

Astronomy

Apr. 03, 2013 Rise Set
Actual Time 6:11 AM AEST 6:02 PM AEST
Civil Twilight 5:49 AM AEST 6:25 PM AEST
Nautical Twilight 5:24 AM AEST 6:50 PM AEST
Astronomical Twilight 4:58 AM AEST 7:16 PM AEST
Moon No Moon Rise 12:37 PM AEST (4/3)
Length of Visible Light 12h 35m
Length of Day
11h 51m
Waning Gibbous, 51% of the Moon is Illuminated
Apr 3
Waning Gibbous
Apr 3
Last Quarter
Apr 10
New
Apr 18
First Quarter
Apr 26
Full

Hourly Weather History & Observations

Time (AEST) Temp. Heat Index Dew Point Humidity Pressure Visibility Wind Dir Wind Speed Gust Speed Precip Events Conditions
12:00 AM 75.2 °F - 73.4 °F 94% 29.95 in - SE 11.5 mph - N/A   Unknown
12:30 AM 75.2 °F - 73.4 °F 94% 29.95 in - SE 12.7 mph - N/A   Unknown
1:00 AM 75.2 °F - 73.4 °F 94% 29.95 in - SE 11.5 mph - N/A   Unknown
1:30 AM 77.0 °F - 73.4 °F 89% 29.92 in - SE 10.4 mph - N/A   Unknown
2:00 AM 77.0 °F - 73.4 °F 89% 29.92 in - SE 12.7 mph - N/A   Unknown
2:30 AM 77.0 °F - 73.4 °F 89% 29.92 in - SE 15.0 mph - N/A   Unknown
3:00 AM 76 °F - 73 °F 86% 29.92 in - SE 13.8 mph - -  
3:00 AM 77.0 °F - 73.4 °F 89% 29.92 in - SE 13.8 mph - N/A   Unknown
3:30 AM 77.0 °F - 73.4 °F 89% 29.92 in - SE 12.7 mph - N/A   Unknown
4:00 AM 77.0 °F - 73.4 °F 89% 29.92 in - SE 13.8 mph - N/A   Unknown
4:30 AM 77.0 °F - 73.4 °F 89% 29.92 in - SE 13.8 mph - N/A   Unknown
5:00 AM 77.0 °F - 73.4 °F 89% 29.92 in - ESE 15.0 mph - N/A   Unknown
5:30 AM 77.0 °F - 71.6 °F 83% 29.92 in - SE 16.1 mph - N/A   Unknown
6:00 AM 77 °F - 72 °F 81% 29.94 in - SE 16.1 mph - -  
6:00 AM 77.0 °F - 71.6 °F 83% 29.95 in - SE 16.1 mph - N/A   Unknown
6:30 AM 77.0 °F - 71.6 °F 83% 29.95 in - SE 16.1 mph - N/A   Unknown
7:00 AM 78.8 °F - 73.4 °F 83% 29.95 in - SE 16.1 mph - N/A   Unknown
7:30 AM 77.0 °F - 73.4 °F 89% 29.98 in - SSE 16.1 mph - N/A   Unknown
8:00 AM 78.8 °F - 73.4 °F 83% 29.98 in - SSE 15.0 mph - N/A   Unknown
8:30 AM 78.8 °F - 73.4 °F 83% 29.98 in - SSE 16.1 mph - N/A   Unknown
9:00 AM 80 °F - 75 °F 80% 29.99 in - SE 16.1 mph - -  
9:00 AM 80.6 °F 86.2 °F 75.2 °F 84% 29.98 in - SE 16.1 mph - N/A   Unknown
9:30 AM 78.8 °F - 75.2 °F 89% 29.98 in - SSE 19.6 mph - N/A   Unknown
10:00 AM 78.8 °F - 73.4 °F 83% 30.01 in - SSE 18.4 mph - N/A   Unknown
10:30 AM 80.6 °F 86.2 °F 75.2 °F 84% 30.01 in - SSE 17.3 mph - N/A   Unknown
11:00 AM 82.4 °F 89.5 °F 75.2 °F 79% 30.01 in - SE 17.3 mph - N/A   Unknown
11:30 AM 80.6 °F 85.4 °F 73.4 °F 79% 29.98 in - SE 18.4 mph - N/A   Unknown
12:00 PM 78 °F - 70 °F 69% 29.98 in - SE 19.6 mph - -  
12:00 PM 78.8 °F - 69.8 °F 74% 29.98 in - SE 19.6 mph - N/A   Unknown
12:30 PM 80.6 °F 82.7 °F 66.2 °F 61% 29.95 in - SE 18.4 mph - N/A   Unknown
1:00 PM 82.4 °F 84.6 °F 66.2 °F 58% 29.95 in - SE 19.6 mph - N/A   Unknown
1:30 PM 80.6 °F 82.7 °F 66.2 °F 61% 29.92 in - SE 20.7 mph - N/A   Unknown
2:00 PM 80.6 °F 83.2 °F 68.0 °F 65% 29.92 in - SE 18.4 mph - N/A   Unknown
2:30 PM 80.6 °F 83.2 °F 68.0 °F 65% 29.92 in - SE 18.4 mph - N/A   Unknown
3:00 PM 80 °F - 70 °F 65% 29.92 in - SE 17.3 mph - -  
3:00 PM 80.6 °F 83.9 °F 69.8 °F 70% 29.92 in - SE 17.3 mph - N/A   Unknown
3:30 PM 78.8 °F - 69.8 °F 74% 29.92 in - SE 16.1 mph - N/A   Unknown
4:00 PM 78.8 °F - 71.6 °F 78% 29.92 in - SE 17.3 mph - N/A   Unknown
4:30 PM 78.8 °F - 69.8 °F 74% 29.92 in - SE 19.6 mph - N/A   Unknown
5:00 PM 78.8 °F - 71.6 °F 78% 29.92 in - SE 19.6 mph - N/A   Unknown
5:30 PM 77.0 °F - 71.6 °F 83% 29.95 in - SE 18.4 mph - N/A   Unknown
6:00 PM 77 °F - 71 °F 76% 29.96 in - SE 18.4 mph - -  
6:00 PM 77.0 °F - 71.6 °F 83% 29.95 in - SE 18.4 mph - N/A   Unknown
6:30 PM 77.0 °F - 69.8 °F 78% 29.95 in - SE 20.7 mph - N/A   Unknown
7:00 PM 77.0 °F - 69.8 °F 78% 29.95 in - ESE 19.6 mph - N/A   Unknown
7:30 PM 77.0 °F - 69.8 °F 78% 29.98 in - SE 19.6 mph - N/A   Unknown
8:00 PM 77.0 °F - 71.6 °F 83% 29.98 in - SE 19.6 mph - N/A   Unknown
8:30 PM 77.0 °F - 71.6 °F 83% 29.98 in - SE 20.7 mph - N/A   Unknown
9:00 PM 77 °F - 71 °F 76% 30.00 in - SE 19.6 mph - -  
9:00 PM 77.0 °F - 71.6 °F 83% 30.01 in - SE 19.6 mph - N/A   Unknown
9:30 PM 77.0 °F - 69.8 °F 78% 30.01 in - SE 18.4 mph - N/A   Unknown
10:00 PM 77.0 °F - 69.8 °F 78% 30.01 in - SE 19.6 mph - N/A   Unknown
10:30 PM 77.0 °F - 69.8 °F 78% 30.01 in - ESE 19.6 mph - N/A   Unknown
11:00 PM 77.0 °F - 69.8 °F 78% 29.98 in - SE 18.4 mph - N/A   Unknown
11:30 PM 77.0 °F - 71.6 °F 83% 29.98 in - SE 18.4 mph - N/A   Unknown